Time,TemperatureF,DewpointF,PressureIn,WindDirection,WindDirectionDegrees,WindSpeedMPH,WindSpeedGustMPH,Humidity,HourlyPrecipIn,Conditions,Clouds,dailyrainin,SolarRadiationWatts/m^2,SoftwareType,DateUTC
2013-05-20 00:01:00,40.0,36.0,30.16,West,275,4.0,5.0,84,-99.99,,,-99.99,0.000000,,2013-05-20 07:01:00,
2013-05-20 00:10:00,37.0,35.0,30.15,WSW,254,3.0,5.0,91,-99.99,,,-99.99,0.000000,,2013-05-20 07:10:00,
2013-05-20 00:52:00,37.0,35.0,30.15,WSW,254,3.0,5.0,91,-99.99,,,-99.99,0.000000,,2013-05-20 07:52:00,
2013-05-20 01:01:00,37.0,35.0,30.15,WSW,254,3.0,5.0,91,-99.99,,,-99.99,0.000000,,2013-05-20 08:01:00,
2013-05-20 01:10:00,35.0,33.0,30.14,SSW,195,3.0,4.0,92,-99.99,,,-99.99,0.000000,,2013-05-20 08:10:00,
2013-05-20 01:51:00,35.0,33.0,30.14,SSW,195,3.0,4.0,92,-99.99,,,-99.99,0.000000,,2013-05-20 08:51:00,
2013-05-20 02:01:00,35.0,33.0,30.14,SSW,195,3.0,4.0,92,-99.99,,,-99.99,0.000000,,2013-05-20 09:01:00,
2013-05-20 02:10:00,34.0,31.0,30.15,SW,233,3.0,5.0,88,-99.99,,,-99.99,0.000000,,2013-05-20 09:10:00,
2013-05-20 02:52:00,34.0,31.0,30.15,SW,233,3.0,5.0,88,-99.99,,,-99.99,0.000000,,2013-05-20 09:52:00,
2013-05-20 03:03:00,34.0,31.0,30.15,SW,233,3.0,5.0,88,-99.99,,,-99.99,0.000000,,2013-05-20 10:03:00,
2013-05-20 03:10:00,35.0,31.0,30.14,NW,308,1.0,4.0,85,-99.99,,,-99.99,0.000000,,2013-05-20 10:10:00,
2013-05-20 03:52:00,35.0,31.0,30.14,NW,308,1.0,4.0,85,-99.99,,,-99.99,0.000000,,2013-05-20 10:52:00,
2013-05-20 04:02:00,35.0,31.0,30.14,NW,308,1.0,4.0,85,-99.99,,,-99.99,0.000000,,2013-05-20 11:02:00,
2013-05-20 04:10:00,33.0,30.0,30.15,NW,312,1.0,3.0,86,-99.99,,,-99.99,0.000000,,2013-05-20 11:10:00,
2013-05-20 04:51:00,33.0,30.0,30.15,NW,312,1.0,3.0,86,-99.99,,,-99.99,0.000000,,2013-05-20 11:51:00,
2013-05-20 05:01:00,33.0,30.0,30.15,NW,312,1.0,3.0,86,-99.99,,,-99.99,0.000000,,2013-05-20 12:01:00,
2013-05-20 05:10:00,33.0,28.0,30.16,WSW,253,2.0,3.0,83,-99.99,,,-99.99,0.000000,,2013-05-20 12:10:00,
2013-05-20 05:51:00,33.0,28.0,30.16,WSW,253,2.0,3.0,83,-99.99,,,-99.99,0.000000,,2013-05-20 12:51:00,
2013-05-20 06:01:00,33.0,28.0,30.16,WSW,253,2.0,3.0,83,-99.99,,,-99.99,0.000000,,2013-05-20 13:01:00,
2013-05-20 06:10:00,36.0,29.0,30.18,South,191,1.0,2.0,77,-99.99,,,-99.99,100.000000,,2013-05-20 13:10:00,
2013-05-20 06:52:00,36.0,29.0,30.18,South,191,1.0,2.0,77,-99.99,,,-99.99,100.000000,,2013-05-20 13:52:00,
2013-05-20 07:01:00,36.0,29.0,30.18,South,191,1.0,2.0,77,-99.99,,,-99.99,100.000000,,2013-05-20 14:01:00,
2013-05-20 07:10:00,41.0,34.0,30.19,SE,127,4.0,6.0,76,-99.99,,,-99.99,290.000000,,2013-05-20 14:10:00,
2013-05-20 07:52:00,41.0,34.0,30.19,SE,127,4.0,6.0,76,-99.99,,,-99.99,290.000000,,2013-05-20 14:52:00,
2013-05-20 08:01:00,41.0,34.0,30.19,SE,127,4.0,6.0,76,-99.99,,,-99.99,290.000000,,2013-05-20 15:01:00,
2013-05-20 08:10:00,47.0,33.0,30.22,North,10,5.0,8.0,58,-99.99,,,-99.99,510.000000,,2013-05-20 15:10:00,
2013-05-20 09:03:00,47.0,33.0,30.22,North,10,5.0,8.0,58,-99.99,,,-99.99,510.000000,,2013-05-20 16:03:00,
2013-05-20 09:10:00,51.0,33.0,30.23,NNE,29,7.0,11.0,50,-99.99,,,-99.99,710.000000,,2013-05-20 16:10:00,
2013-05-20 09:52:00,51.0,33.0,30.23,NNE,29,7.0,11.0,50,-99.99,,,-99.99,710.000000,,2013-05-20 16:52:00,
2013-05-20 10:02:00,51.0,33.0,30.23,NNE,29,7.0,11.0,50,-99.99,,,-99.99,710.000000,,2013-05-20 17:02:00,
2013-05-20 10:10:00,54.0,34.0,30.22,North,357,4.0,10.0,46,-99.99,,,-99.99,880.000000,,2013-05-20 17:10:00,
2013-05-20 10:53:00,54.0,34.0,30.22,North,357,4.0,10.0,46,-99.99,,,-99.99,880.000000,,2013-05-20 17:53:00,
2013-05-20 11:02:00,54.0,34.0,30.22,North,357,4.0,10.0,46,-99.99,,,-99.99,880.000000,,2013-05-20 18:02:00,
2013-05-20 11:10:00,56.0,33.0,30.22,North,3,5.0,9.0,43,-99.99,,,-99.99,990.000000,,2013-05-20 18:10:00,
2013-05-20 11:55:00,56.0,33.0,30.22,North,3,5.0,9.0,43,-99.99,,,-99.99,990.000000,,2013-05-20 18:55:00,
2013-05-20 12:04:00,56.0,33.0,30.22,North,3,5.0,9.0,43,-99.99,,,-99.99,990.000000,,2013-05-20 19:04:00,
2013-05-20 12:10:00,58.0,35.0,30.20,NNE,21,5.0,10.0,42,-99.99,,,-99.99,1060.000000,,2013-05-20 19:10:00,
2013-05-20 12:52:00,58.0,35.0,30.20,NNE,21,5.0,10.0,42,-99.99,,,-99.99,1060.000000,,2013-05-20 19:52:00,
2013-05-20 13:01:00,58.0,35.0,30.20,NNE,21,5.0,10.0,42,-99.99,,,-99.99,1060.000000,,2013-05-20 20:01:00,
2013-05-20 13:10:00,60.0,37.0,30.20,NNE,14,6.0,15.0,43,-99.99,,,-99.99,1120.000000,,2013-05-20 20:10:00,
2013-05-20 13:51:00,60.0,37.0,30.20,NNE,14,6.0,15.0,43,-99.99,,,-99.99,1120.000000,,2013-05-20 20:51:00,
2013-05-20 14:01:00,60.0,37.0,30.20,NNE,14,6.0,15.0,43,-99.99,,,-99.99,1120.000000,,2013-05-20 21:01:00,
2013-05-20 14:10:00,61.0,37.0,30.17,NNE,27,8.0,14.0,40,-99.99,,,-99.99,1030.000000,,2013-05-20 21:10:00,
2013-05-20 14:53:00,61.0,37.0,30.17,NNE,27,8.0,14.0,40,-99.99,,,-99.99,1030.000000,,2013-05-20 21:53:00,
2013-05-20 15:02:00,61.0,37.0,30.17,NNE,27,8.0,14.0,40,-99.99,,,-99.99,1030.000000,,2013-05-20 22:02:00,
2013-05-20 15:10:00,63.0,37.0,30.16,NNE,33,7.0,15.0,38,-99.99,,,-99.99,880.000000,,2013-05-20 22:10:00,
2013-05-20 15:52:00,63.0,37.0,30.16,NNE,33,7.0,15.0,38,-99.99,,,-99.99,880.000000,,2013-05-20 22:52:00,
2013-05-20 16:02:00,63.0,37.0,30.16,NNE,33,7.0,15.0,38,-99.99,,,-99.99,880.000000,,2013-05-20 23:02:00,
2013-05-20 16:10:00,64.0,36.0,30.14,North,10,6.0,12.0,36,-99.99,,,-99.99,710.000000,,2013-05-20 23:10:00,
2013-05-20 16:52:00,64.0,36.0,30.14,North,10,6.0,12.0,36,-99.99,,,-99.99,710.000000,,2013-05-20 23:52:00,
2013-05-20 17:01:00,64.0,36.0,30.14,North,10,6.0,12.0,36,-99.99,,,-99.99,710.000000,,2013-05-21 00:01:00,
2013-05-20 17:10:00,64.0,35.0,30.13,North,11,7.0,13.0,34,-99.99,,,-99.99,510.000000,,2013-05-21 00:10:00,
2013-05-20 18:01:00,64.0,35.0,30.13,North,11,7.0,13.0,34,-99.99,,,-99.99,510.000000,,2013-05-21 01:01:00,
2013-05-20 18:10:00,62.0,36.0,30.12,NNE,22,7.0,11.0,38,-99.99,,,-99.99,210.000000,,2013-05-21 01:10:00,
2013-05-20 18:52:00,62.0,36.0,30.12,NNE,22,7.0,11.0,38,-99.99,,,-99.99,210.000000,,2013-05-21 01:52:00,
2013-05-20 19:01:00,62.0,36.0,30.12,NNE,22,7.0,11.0,38,-99.99,,,-99.99,210.000000,,2013-05-21 02:01:00,
2013-05-20 19:10:00,58.0,39.0,30.13,WNW,284,5.0,6.0,49,-99.99,,,-99.99,20.000000,,2013-05-21 02:10:00,
2013-05-20 19:52:00,58.0,39.0,30.13,WNW,284,5.0,6.0,49,-99.99,,,-99.99,20.000000,,2013-05-21 02:52:00,
2013-05-20 20:02:00,58.0,39.0,30.13,WNW,284,5.0,6.0,49,-99.99,,,-99.99,20.000000,,2013-05-21 03:02:00,
2013-05-20 20:10:00,55.0,37.0,30.12,West,276,5.0,6.0,51,-99.99,,,-99.99,0.000000,,2013-05-21 03:10:00,
2013-05-20 20:53:00,55.0,37.0,30.12,West,276,5.0,6.0,51,-99.99,,,-99.99,0.000000,,2013-05-21 03:53:00,
2013-05-20 21:03:00,55.0,37.0,30.12,West,276,5.0,6.0,51,-99.99,,,-99.99,0.000000,,2013-05-21 04:03:00,
2013-05-20 21:10:00,55.0,37.0,30.14,NNW,334,6.0,8.0,50,-99.99,,,-99.99,0.000000,,2013-05-21 04:10:00,
2013-05-20 21:52:00,55.0,37.0,30.14,NNW,334,6.0,8.0,50,-99.99,,,-99.99,0.000000,,2013-05-21 04:52:00,
2013-05-20 22:02:00,55.0,37.0,30.14,NNW,334,6.0,8.0,50,-99.99,,,-99.99,0.000000,,2013-05-21 05:02:00,
2013-05-20 22:10:00,54.0,36.0,30.15,SW,223,4.0,7.0,50,-99.99,,,-99.99,0.000000,,2013-05-21 05:10:00,
2013-05-20 22:51:00,54.0,36.0,30.15,SW,223,4.0,7.0,50,-99.99,,,-99.99,0.000000,,2013-05-21 05:51:00,
2013-05-20 23:02:00,54.0,36.0,30.15,SW,223,4.0,7.0,50,-99.99,,,-99.99,0.000000,,2013-05-21 06:02:00,
2013-05-20 23:10:00,47.0,37.0,30.13,West,278,3.0,5.0,69,-99.99,,,-99.99,0.000000,,2013-05-21 06:10:00,
2013-05-20 23:51:00,47.0,37.0,30.13,West,278,3.0,5.0,69,-99.99,,,-99.99,0.000000,,2013-05-21 06:51:00,